Regional Weather Roundup
Issued by NWS

Home | Current Version | Previous Version | Text Only | Print | Product List | Glossary On
Versions: 1 2 3 4 5 6 7 8 9 10 11 12 13 14 15 16 17 18 19 20 21 22 23 24 25 26 27 28 29 30 31 32 33 34 35 36 37 38 39 40 41 42 43 44 45 46 47 48 49 50
000
ASUS46 KSEW 201810
RWRWA

WASHINGTON REGIONAL WEATHER ROUNDUP
NATIONAL WEATHER SERVICE SEATTLE WA
1100 AM PDT SAT SEP 20 2014

NOTE:"FAIR" INDICATES FEW OR NO CLOUDS BELOW 12,000 FEET WITH NO
SIGNIFICANT WEATHER AND/OR OBSTRUCTIONS TO VISIBILITY.

WAZ505-507>509-201900-
SEATTLE, TACOMA, EVERETT, AND VICINITY

CITY           SKY/WX    TMP DP  RH WIND       PRES   REMARKS
EVERETT        CLOUDY    57  55  93 N7        30.12S FOG
6HR MIN TEMP:  56; 6HR MAX TEMP:  57;

BOEING FIELD   PTSUNNY   64  55  72 VRB6      30.10F
6HR MIN TEMP:  60; 6HR MAX TEMP:  65;

RENTON         PTSUNNY   64  59  83 NW10      30.08F
6HR MIN TEMP:  58; 6HR MAX TEMP:  64;

SEATAC AIRPORT CLOUDY    60  56  86 N15       30.10F FOG
6HR MIN TEMP:  58; 6HR MAX TEMP:  61;

JBLM-MCCHORD   CLOUDY    60  58  93 N9        30.09F
6HR MIN TEMP:  49; 6HR MAX TEMP:  60;

PUYALLUP       NOT AVBL
JBLM-FT LEWIS  CLOUDY    59  57  94 N9        30.08F
6HR MIN TEMP:  51; 6HR MAX TEMP:  59;

TACOMA NARROWS CLOUDY    60  55  83 N9        30.09F
6HR MIN TEMP:  56; 6HR MAX TEMP:  60;

$$

WAZ001-503-506-510-514-515-201900-
NORTH INTERIOR

CITY           SKY/WX    TMP DP  RH WIND       PRES   REMARKS
BELLINGHAM     SUNNY     67  54  63 N14G20    30.11F
6HR MIN TEMP:  54; 6HR MAX TEMP:  68;

FRIDAY HARBOR  MOSUNNY   64  57  78 N9        30.14S
6HR MIN TEMP:  57; 6HR MAX TEMP:  64;

EASTSOUND      SUNNY     61  57  88 N8        30.12F
PORT ANGELES     N/A     63  57  81 E12       30.13F
6HR MIN TEMP:  59; 6HR MAX TEMP:  64;

NAS WHIDBEY    MOSUNNY   61  55  81 W7        30.13F
6HR MIN TEMP:  56; 6HR MAX TEMP:  61;

BURLINGTON     SUNNY     63  59  88 N3        30.13F
$$

WAZ020-022-039-040-504-511-512-201900-
SOUTHWEST INTERIOR

CITY           SKY/WX    TMP DP  RH WIND       PRES   REMARKS
SHELTON        SUNNY     70  56  61 E9        30.05F
6HR MIN TEMP:  45; 6HR MAX TEMP:  70;

OLYMPIA        CLOUDY    60  56  86 NE13      30.09S
6HR MIN TEMP:  46; 6HR MAX TEMP:  60;

CHEHALIS       FAIR      66  59  77 VRB7G16   30.05F
KELSO          SUNNY     68  54  60 N12G18    30.03F
6HR MIN TEMP:  61; 6HR MAX TEMP:  68;

VANCOUVER      SUNNY     72  57  59 VRB6      29.97F
6HR MIN TEMP:  60; 6HR MAX TEMP:  72;

SCAPPOOSE, OR  SUNNY     77  56  48 N7        29.96F
6HR MIN TEMP:  60; 6HR MAX TEMP:  77;

PORTLAND, OR   SUNNY     71  58  63 NW5       29.97F
6HR MIN TEMP:  59; 6HR MAX TEMP:  71;

$$

WAZ021-516-517-201900-
WASHINGTON COAST

CITY           SKY/WX    TMP DP  RH WIND       PRES   REMARKS
FORKS          SUNNY     70  58  65 NE8       30.04F
6HR MIN TEMP:  44; 6HR MAX TEMP:  70;

HOQUIAM        SUNNY     69  58  67 NE13      30.03F
6HR MIN TEMP:  51; 6HR MAX TEMP:  69;

ASTORIA, OR    SUNNY     73  59  61 E15       29.95F
6HR MIN TEMP:  53; 6HR MAX TEMP:  73;

$$

WAZ019-023-024-040-518-519-201900-
CASCADE MOUNTAINS AND COLUMBIA GORGE

CITY           SKY/WX    TMP DP  RH WIND       PRES   REMARKS
STAMPEDE PASS  SUNNY     62  50  64 VRB5      30.21
6HR MIN TEMP:  48; 6HR MAX TEMP:  62;

TROUTDALE, OR  SUNNY     76  56  49 VRB5      29.95F
6HR MIN TEMP:  52; 6HR MAX TEMP:  76;

THE DALLES, OR SUNNY     74  53  48 CALM      30.09F
6HR MIN TEMP:  54; 6HR MAX TEMP:  74;

$$

WAZ026-027-041>044-520-521-201900-
EAST SLOPES

CITY           SKY/WX    TMP DP  RH WIND       PRES   REMARKS
OMAK           SUNNY     73  44  35 N15       30.18F
6HR MIN TEMP:  55; 6HR MAX TEMP:  73;

WENATCHEE      SUNNY     70  48  45 VRB3      30.16F
6HR MIN TEMP:  56; 6HR MAX TEMP:  70;

ELLENSBURG     SUNNY     71  51  49 SW3       30.16F
6HR MIN TEMP:  49; 6HR MAX TEMP:  71;

YAKIMA         SUNNY     75  53  46 W6        30.13F
6HR MIN TEMP:  51; 6HR MAX TEMP:  75;

$$

WAZ028-034-035-201900-
COLUMBIA BASIN

CITY           SKY/WX    TMP DP  RH WIND       PRES   REMARKS
EPHRATA        SUNNY     76  49  38 N10       30.14F
6HR MIN TEMP:  55; 6HR MAX TEMP:  76;

MOSES LAKE     SUNNY     78  47  33 NE9       30.14F
6HR MIN TEMP:  51; 6HR MAX TEMP:  78;

PASCO          SUNNY     74  56  53 N10       30.10F
6HR MIN TEMP:  50; 6HR MAX TEMP:  74;

HERMISTON, OR  SUNNY     74  52  46 CALM      30.09F
6HR MIN TEMP:  48; 6HR MAX TEMP:  74;

$$

WAZ036>038-201900-
NORTHEAST WASHINGTON

CITY           SKY/WX    TMP DP  RH WIND       PRES   REMARKS
SPOKANE GEIGER SUNNY     70  49  47 NE7       30.20F
6HR MIN TEMP:  54; 6HR MAX TEMP:  70;

SPOKANE FELTS  SUNNY     71  49  45 CALM      30.20F
6HR MIN TEMP:  49; 6HR MAX TEMP:  72;

FAIRCHILD AFB  SUNNY     70  48  44 NE6       30.20F
6HR MIN TEMP:  49; 6HR MAX TEMP:  70;

COEURDALENE,ID SUNNY     70  52  52 NE7       30.20S
6HR MIN TEMP:  46; 6HR MAX TEMP:  70;

DEER PARK      SUNNY     73  49  42 CALM      30.20F
6HR MIN TEMP:  41; 6HR MAX TEMP:  73;

$$

WAZ029>033-201900-
SOUTHEAST WASHINGTON

CITY           SKY/WX    TMP DP  RH WIND       PRES   REMARKS
PULLMAN        SUNNY     74  47  38 SE8       30.18F
6HR MIN TEMP:  54; 6HR MAX TEMP:  75;

LEWISTON, ID   SUNNY     70  49  47 VRB3      30.14F
6HR MIN TEMP:  54; 6HR MAX TEMP:  71;

WALLA WALLA    SUNNY     72  49  44 SW5       30.11S
6HR MIN TEMP:  56; 6HR MAX TEMP:  72;

PENDLETON, OR  SUNNY     76  46  34 NE6       30.10F
6HR MIN TEMP:  52; 6HR MAX TEMP:  76;

$$



USA.gov is the U.S. government's official web portal to all federal, state and local government web resources and services.